TimeCST,TemperatureF,Dew PointF,Humidity,Sea Level PressureIn,VisibilityMPH,Wind Direction,Wind SpeedMPH,Gust SpeedMPH,PrecipitationIn,Events,Conditions,WindDirDegrees,DateUTC
12:54 AM,19.9,10.9,68,29.92,10.0,WNW,6.9,-,N/A,,Overcast,300,2013-01-13 06:54:00
1:54 AM,19.9,10.9,68,29.95,10.0,NW,5.8,-,N/A,,Overcast,310,2013-01-13 07:54:00
2:38 AM,19.4,10.4,68,29.87,10.0,NW,6.9,-,N/A,,Scattered Clouds,310,2013-01-13 08:38:00
2:54 AM,19.0,10.9,71,29.92,10.0,NW,9.2,-,N/A,,Mostly Cloudy,320,2013-01-13 08:54:00
3:54 AM,19.0,10.9,71,29.91,10.0,NW,13.8,-,N/A,,Overcast,320,2013-01-13 09:54:00
4:54 AM,19.0,10.0,68,29.92,10.0,NNW,9.2,-,N/A,,Overcast,330,2013-01-13 10:54:00
5:54 AM,19.0,10.0,68,29.92,10.0,NNW,11.5,-,N/A,,Overcast,330,2013-01-13 11:54:00
6:54 AM,19.0,10.0,68,29.95,10.0,NNW,9.2,-,N/A,,Overcast,340,2013-01-13 12:54:00
7:54 AM,18.0,10.0,71,29.98,10.0,NW,9.2,-,N/A,,Overcast,310,2013-01-13 13:54:00
8:54 AM,19.0,10.0,68,29.98,10.0,NW,10.4,-,N/A,,Overcast,320,2013-01-13 14:54:00
9:54 AM,19.0,10.0,68,29.99,10.0,WNW,10.4,-,N/A,,Overcast,300,2013-01-13 15:54:00
10:54 AM,19.0,9.0,65,29.97,10.0,WNW,10.4,-,N/A,,Overcast,300,2013-01-13 16:54:00
11:54 AM,19.9,9.0,62,29.93,10.0,NW,6.9,-,N/A,,Overcast,320,2013-01-13 17:54:00
12:54 PM,19.9,9.0,62,29.93,10.0,NNW,5.8,-,N/A,,Overcast,340,2013-01-13 18:54:00
1:54 PM,21.0,9.0,60,29.95,10.0,NNW,4.6,-,N/A,,Overcast,340,2013-01-13 19:54:00
2:54 PM,21.0,9.0,60,29.96,10.0,NW,5.8,-,N/A,,Overcast,320,2013-01-13 20:54:00
3:54 PM,19.9,9.0,62,29.95,10.0,NNW,9.2,-,N/A,,Overcast,330,2013-01-13 21:54:00
4:54 PM,19.0,9.0,65,29.96,10.0,NW,6.9,-,N/A,,Overcast,310,2013-01-13 22:54:00
5:54 PM,19.0,8.1,62,29.96,10.0,NW,9.2,-,N/A,,Overcast,310,2013-01-13 23:54:00
6:54 PM,18.0,8.1,65,29.97,10.0,WNW,11.5,-,N/A,,Overcast,300,2013-01-14 00:54:00
7:54 PM,17.1,7.0,65,30.01,10.0,NW,10.4,-,N/A,,Overcast,310,2013-01-14 01:54:00
8:07 PM,17.6,8.6,68,29.94,10.0,NW,11.5,-,N/A,,Overcast,310,2013-01-14 02:07:00
8:54 PM,16.0,8.1,71,30.02,4.0,WNW,10.4,-,0.00,Snow,Light Snow,300,2013-01-14 02:54:00
9:25 PM,15.8,8.6,73,29.95,1.8,WNW,12.7,-,0.00,Snow,Light Snow,290,2013-01-14 03:25:00
9:33 PM,14.0,8.6,79,29.96,1.2,WNW,12.7,-,0.00,Snow,Light Snow,300,2013-01-14 03:33:00
9:41 PM,14.0,8.6,79,29.96,1.5,WNW,15.0,21.9,0.00,Snow,Light Snow,290,2013-01-14 03:41:00
9:54 PM,14.0,7.0,74,30.04,2.0,WNW,13.8,-,0.00,Snow,Light Snow,290,2013-01-14 03:54:00
10:13 PM,12.2,6.8,79,29.97,3.0,WNW,11.5,-,0.00,Snow,Light Snow,300,2013-01-14 04:13:00
10:54 PM,12.0,3.9,70,30.06,10.0,WNW,9.2,-,0.00,,Overcast,290,2013-01-14 04:54:00
11:54 PM,10.0,3.0,73,30.09,10.0,West,6.9,-,N/A,,Clear,280,2013-01-14 05:54:00